When you browse on this site, cookies collect data to enhance your experience and personalize the content and advertising you see.
Visit our Privacy Policy to learn more. By continuing to use the site, you agree to this use of cookies and data.
  • In Hungary
  • List of Countries
  • For 7 days
  • Water Temperature
  • Weather Map
  • News
  • Weather Widgets
  • user-avatar
    Login

    Hourly Weather Kuzmino

    Today, 26 February, Wednesday

    Time Temperature Precipitation Wind Pressure Humidity
    00:00 -5°C° 0 mm 4 mps 739 mmHg 90%
    01:00 -7°C° 0 mm 4 mps 740 mmHg 90%
    02:00 -7°C° 0 mm 4 mps 740 mmHg 90%
    03:00 -8°C° 0 mm 4 mps 741 mmHg 91%
    04:00 -7°C° 0 mm 3 mps 741 mmHg 92%
    05:00 -7°C° 0 mm 3 mps 742 mmHg 93%
    06:00 -7°C° 0 mm 3 mps 742 mmHg 94%
    07:00 -6°C° 0 mm 3 mps 742 mmHg 91%
    08:00 -7°C° 0 mm 4 mps 743 mmHg 87%
    09:00 -5°C° 0 mm 4 mps 743 mmHg 84%
    10:00 -4°C° 0 mm 4 mps 744 mmHg 81%
    11:00 -2°C° 0 mm 3 mps 744 mmHg 79%
    12:00 -2°C° 0 mm 3 mps 744 mmHg 77%
    13:00 -2°C° 0 mm 3 mps 744 mmHg 75%
    14:00 -1°C° 0 mm 2 mps 744 mmHg 74%
    15:00 -1°C° 0 mm 2 mps 744 mmHg 73%
    16:00 -2°C° 0 mm 2 mps 744 mmHg 78%
    17:00 -3°C° 0 mm 2 mps 744 mmHg 83%
    18:00 -5°C° 0 mm 3 mps 744 mmHg 88%
    19:00 -5°C° 0 mm 3 mps 744 mmHg 88%
    20:00 -5°C° 0 mm 3 mps 744 mmHg 89%
    21:00 -5°C° 0 mm 4 mps 743 mmHg 89%
    22:00 -4°C° 0.3 mm 4 mps 743 mmHg 91%
    23:00 -4°C° 0.3 mm 4 mps 742 mmHg 93%

    Tomorrow, 27 February, Thursday

    Time Temperature Precipitation Wind Pressure Humidity
    00:00 -3°C° 0.3 mm 4 mps 742 mmHg 95%
    01:00 -3°C° 0.2 mm 4 mps 742 mmHg 96%
    02:00 -1°C° 0.2 mm 3 mps 742 mmHg 96%
    03:00 0°C° 0.2 mm 3 mps 742 mmHg 97%
    04:00 0°C° 0.1 mm 3 mps 742 mmHg 97%
    05:00 +1°C° 0.1 mm 2 mps 742 mmHg 97%
    06:00 +1°C° 0.1 mm 2 mps 742 mmHg 98%
    07:00 +1°C° 0 mm 2 mps 742 mmHg 98%
    08:00 +1°C° 0 mm 2 mps 743 mmHg 99%
    09:00 +1°C° 0 mm 2 mps 743 mmHg 99%
    10:00 +2°C° 0 mm 2 mps 743 mmHg 99%
    11:00 +3°C° 0 mm 1 mps 744 mmHg 99%
    12:00 +3°C° 0 mm 1 mps 744 mmHg 99%
    13:00 +3°C° 0.1 mm 1 mps 744 mmHg 99%
    14:00 +2°C° 0.1 mm 2 mps 744 mmHg 99%
    15:00 +2°C° 0.1 mm 2 mps 744 mmHg 99%
    16:00 +2°C° 0.1 mm 2 mps 744 mmHg 99%
    17:00 +2°C° 0.1 mm 2 mps 743 mmHg 98%
    18:00 +1°C° 0.1 mm 3 mps 743 mmHg 98%
    19:00 +1°C° 0.2 mm 3 mps 743 mmHg 98%
    20:00 +1°C° 0.2 mm 3 mps 742 mmHg 98%
    21:00 +1°C° 0.2 mm 3 mps 742 mmHg 97%
    22:00 0°C° 0.6 mm 3 mps 742 mmHg 97%
    23:00 -1°C° 0.6 mm 4 mps 741 mmHg 97%

    Day after tomorrow, 28 February, Friday

    Time Temperature Precipitation Wind Pressure Humidity
    00:00 -1°C° 0.6 mm 4 mps 740 mmHg 97%
    01:00 -1°C° 0.4 mm 4 mps 740 mmHg 97%
    02:00 -1°C° 0.4 mm 4 mps 740 mmHg 97%
    03:00 0°C° 0.4 mm 4 mps 740 mmHg 97%
    04:00 0°C° 0.2 mm 4 mps 740 mmHg 97%
    05:00 0°C° 0.2 mm 4 mps 740 mmHg 97%
    06:00 0°C° 0.2 mm 4 mps 740 mmHg 97%
    07:00 +1°C° 0 mm 4 mps 740 mmHg 97%
    08:00 +1°C° 0 mm 4 mps 741 mmHg 97%
    09:00 +1°C° 0 mm 4 mps 741 mmHg 98%
    10:00 +1°C° 0 mm 4 mps 741 mmHg 97%
    11:00 +3°C° 0 mm 3 mps 741 mmHg 97%
    12:00 +3°C° 0 mm 3 mps 742 mmHg 96%
    13:00 +3°C° 0.2 mm 3 mps 741 mmHg 97%
    14:00 +1°C° 0.2 mm 4 mps 741 mmHg 97%
    15:00 +1°C° 0.2 mm 4 mps 740 mmHg 98%
    16:00 +1°C° 1.2 mm 4 mps 740 mmHg 97%
    17:00 +2°C° 1.2 mm 5 mps 739 mmHg 96%
    18:00 +2°C° 1.2 mm 5 mps 739 mmHg 95%
    19:00 +2°C° 0.4 mm 5 mps 739 mmHg 95%
    20:00 +2°C° 0.4 mm 5 mps 739 mmHg 94%
    21:00 +2°C° 0.4 mm 5 mps 739 mmHg 94%
    22:00 +2°C° 0.6 mm 5 mps 739 mmHg 95%
    23:00 +1°C° 0.6 mm 4 mps 740 mmHg 96%

    29 February, Saturday

    Time Temperature Precipitation Wind Pressure Humidity
    00:00 +1°C° 0.6 mm 4 mps 740 mmHg 96%
    01:00 0°C° 0 mm 4 mps 741 mmHg 93%
    02:00 0°C° 0 mm 3 mps 742 mmHg 90%
    03:00 -1°C° 0 mm 3 mps 742 mmHg 86%
    04:00 -1°C° 0 mm 3 mps 743 mmHg 85%
    05:00 -2°C° 0 mm 2 mps 744 mmHg 85%
    06:00 -2°C° 0 mm 2 mps 744 mmHg 84%
    07:00 -2°C° 0 mm 2 mps 744 mmHg 82%
    08:00 -2°C° 0 mm 3 mps 745 mmHg 80%
    09:00 -1°C° 0 mm 3 mps 745 mmHg 78%
    10:00 -1°C° 0 mm 3 mps 745 mmHg 77%
    11:00 +1°C° 0 mm 2 mps 745 mmHg 76%
    12:00 +1°C° 0 mm 2 mps 745 mmHg 75%
    13:00 +1°C° 0 mm 2 mps 745 mmHg 76%
    14:00 +1°C° 0 mm 2 mps 745 mmHg 77%
    15:00 +1°C° 0 mm 2 mps 745 mmHg 78%
    16:00 -1°C° 0 mm 2 mps 746 mmHg 81%
    17:00 -1°C° 0 mm 2 mps 746 mmHg 83%
    18:00 -2°C° 0 mm 2 mps 746 mmHg 86%
    19:00 -2°C° 0 mm 2 mps 747 mmHg 87%
    20:00 -2°C° 0 mm 2 mps 747 mmHg 87%
    21:00 -2°C° 0 mm 2 mps 747 mmHg 88%
    22:00 -3°C° 0 mm 2 mps 748 mmHg 89%
    23:00 -3°C° 0 mm 2 mps 748 mmHg 90%

    1 March, Sunday

    Time Temperature Precipitation Wind Pressure Humidity
    00:00 -3°C° 0 mm 2 mps 748 mmHg 91%
    01:00 -3°C° 0 mm 2 mps 748 mmHg 92%
    02:00 -3°C° 0 mm 2 mps 749 mmHg 92%
    03:00 -3°C° 0 mm 2 mps 749 mmHg 93%
    04:00 -3°C° 0 mm 2 mps 749 mmHg 93%
    05:00 -3°C° 0 mm 2 mps 750 mmHg 93%
    06:00 -3°C° 0 mm 2 mps 750 mmHg 93%
    07:00 -2°C° 0 mm 2 mps 750 mmHg 90%
    08:00 -2°C° 0 mm 2 mps 751 mmHg 87%
    09:00 -1°C° 0 mm 2 mps 751 mmHg 84%
    10:00 -1°C° 0 mm 2 mps 751 mmHg 80%
    11:00 +1°C° 0 mm 2 mps 752 mmHg 76%
    12:00 +2°C° 0 mm 2 mps 752 mmHg 72%
    13:00 +2°C° 0 mm 2 mps 752 mmHg 72%
    14:00 +2°C° 0 mm 2 mps 752 mmHg 72%
    15:00 +2°C° 0 mm 2 mps 752 mmHg 72%
    16:00 +1°C° 0 mm 2 mps 752 mmHg 76%
    17:00 -1°C° 0 mm 2 mps 753 mmHg 81%
    18:00 -2°C° 0 mm 2 mps 753 mmHg 85%
    19:00 -2°C° 0.1 mm 2 mps 753 mmHg 88%
    20:00 -2°C° 0.1 mm 2 mps 753 mmHg 92%
    21:00 -2°C° 0.1 mm 2 mps 754 mmHg 95%
    22:00 -2°C° 0.1 mm 2 mps 754 mmHg 94%
    23:00 -2°C° 0.1 mm 2 mps 754 mmHg 94%

    2 March, Monday

    Time Temperature Precipitation Wind Pressure Humidity
    00:00 -2°C° 0.1 mm 2 mps 754 mmHg 93%
    01:00 -2°C° 0 mm 2 mps 754 mmHg 94%
    02:00 -2°C° 0 mm 2 mps 754 mmHg 95%
    03:00 -2°C° 0 mm 2 mps 754 mmHg 96%
    04:00 -2°C° 0 mm 2 mps 754 mmHg 96%
    05:00 -2°C° 0 mm 2 mps 754 mmHg 96%
    06:00 -2°C° 0 mm 2 mps 754 mmHg 96%
    07:00 -2°C° 0 mm 2 mps 754 mmHg 93%
    08:00 -1°C° 0 mm 3 mps 754 mmHg 91%
    09:00 -1°C° 0 mm 3 mps 754 mmHg 88%
    10:00 -2°C° 0 mm 4 mps 753 mmHg 86%
    11:00 -1°C° 0 mm 4 mps 753 mmHg 84%
    12:00 -1°C° 0 mm 4 mps 753 mmHg 83%
    13:00 -1°C° 0 mm 4 mps 753 mmHg 81%
    14:00 -1°C° 0 mm 4 mps 753 mmHg 80%
    15:00 0°C° 0 mm 4 mps 753 mmHg 78%
    16:00 -1°C° 0 mm 4 mps 753 mmHg 81%
    17:00 -1°C° 0 mm 4 mps 753 mmHg 85%
    18:00 -2°C° 0 mm 4 mps 753 mmHg 88%
    19:00 -2°C° 0 mm 4 mps 753 mmHg 87%
    20:00 -2°C° 0 mm 4 mps 753 mmHg 87%
    21:00 -2°C° 0 mm 4 mps 753 mmHg 86%
    22:00 -2°C° 0 mm 4 mps 753 mmHg 88%
    23:00 -2°C° 0 mm 4 mps 753 mmHg 91%
    Show more